Home > Time Zones > World Clock > Weather > Iran > Ahvaz > Past weeks

Flag for Iran Weather past 2 weeks in Ahvaz, Iran

Now
111 °F

Sunny.


Feels Like: 110 °F
Forecast: 80 / 106 °F
Wind: 5 mph from Northwest

Location: Ahwaz

Current Time: Sep 21, 2014 at 5:12:36 PM

Latest Report: Sep 21, 2014 at 4:30 PM


Visibility: 10 mi

Pressure: 29.59 "Hg

Humidity: 15%

Dew point: 54 °F

Location of AhvazLocation

Historic Weather in Ahvaz — Graph

°F

Ahvaz temperature yesterday

Maximum temperature yesterday: 108 °F (at 3:00 PM)
Minimum temperature yesterday: 72 °F (at 6:30 AM)
Average temperature yesterday: 91 °F

Past Weeks' High & Low Weather Summary

 TemperatureHumidityPressure
High113 °F (Sep 7, 3:00 PM)57% (Sep 21, 4:30 AM)29.77 "Hg (Sep 21, 4:30 AM)
Low70 °F (Sep 21, 7:30 AM)8% (Sep 9, 4:30 PM)29.47 "Hg (Sep 6, 4:30 PM)
Average95 °F25%29.61 "Hg
* Reported Sep 6 3:30 PM — Sep 21 4:00 PM, Ahvaz, Weather by CustomWeather, © 2014

Note: Actual official high and low records may vary slightly from our data, if they occured in-between our weather recording intervals... More about our weather records

Advertising

Ahvaz weather history for previous 24 hours

 ConditionsComfort  
Time TempWeatherWind HumidityBarometerVisibility
4:00 PM
Sep 21
109 °FSunny.7 mph15%29.59 "Hg10 mi
3:30 PM109 °FSunny.7 mph15%29.59 "Hg10 mi
3:00 PM109 °FSunny.7 mph15%29.62 "Hg10 mi
2:30 PM109 °FSunny.5 mph15%29.62 "Hg10 mi
1:30 PM108 °FSunny.No wind16%29.65 "Hg10 mi
1:00 PM106 °FSunny.5 mph20%29.68 "Hg10 mi
12:30 PM106 °FSunny.No wind20%29.68 "Hg10 mi
11:30 AM100 °FSunny.No wind31%29.68 "Hg5 mi
11:00 AM99 °FSunny.No wind35%29.65 "Hg5 mi
10:30 AM95 °FSunny.No wind39%29.65 "Hg5 mi
10:00 AM90 °FSunny.No wind36%29.65 "Hg5 mi
9:30 AM88 °FSunny.No wind38%29.65 "Hg5 mi
9:00 AM82 °FSunny.No wind40%29.65 "Hg10 mi
8:30 AM75 °FClear.No wind44%29.65 "Hg10 mi
8:00 AM72 °FClear.No wind47%29.62 "Hg10 mi
7:30 AM70 °FClear.No wind50%29.62 "Hg10 mi
6:30 AM72 °FClear.No wind53%29.62 "Hg5 mi
5:30 AM72 °FClear.No wind57%29.59 "Hg5 mi
4:30 AM72 °FClear.No wind57%29.59 "Hg5 mi
3:30 AM77 °FClear.2 mph44%29.59 "Hg10 mi
2:30 AM79 °FClear.No wind48%29.62 "Hg10 mi
1:30 AM81 °FClear.No wind45%29.62 "Hg10 mi
1:00 AM79 °FClear.No wind48%29.62 "Hg10 mi
12:30 AM79 °FClear.No wind48%29.62 "Hg10 mi
12:00 AM82 °FClear.No wind45%29.62 "Hg10 mi
11:30 PM
Sep 20
82 °FClear.2 mph45%29.62 "Hg10 mi
11:00 PM86 °FClear.No wind43%29.62 "Hg10 mi
10:30 PM88 °FClear.No wind40%29.62 "Hg10 mi
10:00 PM86 °FClear.No wind40%29.62 "Hg10 mi
6:00 PM106 °FSunny.5 mph13%29.59 "Hg10 mi
5:30 PM108 °FSunny.5 mph14%29.59 "Hg10 mi
5:00 PM108 °FSunny.5 mph14%29.59 "Hg10 mi
Weather by CustomWeather, © 2014

See weather overviewHow to use our weather pages